Torna al catalogo

COSMOS 2141

GLONASS

AttivoNavigazioneMEO
NORAD 21218·PAYLOAD·🇷🇺 Russia

Lanciato Apr 4, 1991 da Baikonur Cosmodrome

Loading…

Prossimi Passaggi (prossime 24 ore)

TLE

AggiornatoSource: Space-Track

Epoca: Sep 14, 2026, 07:53 UTC

1 21218U 91025C   26257.32854491 -.00000038  00000-0  00000-0 0  9991
2 21218  64.2835 301.0572 0006263 230.3389 128.0276  2.13103076275864

Traccia COSMOS 2141 in tempo reale con AllMySat

Download on the App Store